Regional Weather Roundup
Issued by NWS

Home | Current Version | Previous Version | Text Only | Print | Product List | Glossary Off
Versions: 1 2 3 4 5 6 7 8 9 10 11 12 13 14 15 16 17 18 19 20 21 22 23 24 25 26 27 28 29 30 31 32 33 34 35 36 37 38 39 40 41 42 43 44 45 46 47 48 49 50

000
ASUS43 KMKX 240400
RWRWI

WISCONSIN REGIONAL WEATHER ROUNDUP
NATIONAL WEATHER SERVICE MILWAUKEE/SULLIVAN WI
1000 PM CST TUE JAN 23 2018

NOTE: "FAIR" INDICATES FEW OR NO CLOUDS BELOW 12,000 FEET WITH NO
SIGNIFICANT WEATHER AND/OR OBSTRUCTIONS TO VISIBILITY.

WIZ001-002-006>008-014>016-023>028-240500-
NORTHWEST WISCONSIN

CITY           SKY/WX    TMP DP  RH WIND       PRES   REMARKS
SUPERIOR ARPT  FAIR       8   5  86 CALM      30.18R
ASHLAND        MOCLDY     7   5  91 S3        30.18R
HAYWARD        FAIR       8   2  76 CALM      30.15R
SIREN          FAIR       9   5  85 CALM      30.17S
CUMBERLAND     FAIR       5   1  85 CALM      30.15S
RICE LAKE      FAIR       4   2  88 CALM      30.18R
CHETEK         FAIR       7   6  94 CALM      30.17R
LADYSMITH      CLOUDY    21  16  79 N6        30.16R WCI  13
EAU CLAIRE     NOT AVBL
MENOMONIE      FAIR      12  10  92 CALM      30.18S
NEW RICHMOND   FAIR       6   2  82 CALM      30.18R
OSCEOLA        FAIR       8   4  87 CALM      30.21R
$$

WIZ003>005-009-010-017-018-240500-
NORTH CENTRAL WISCONSIN

CITY           SKY/WX    TMP DP  RH WIND       PRES   REMARKS
MANITOWISH WTR MOCLDY     9   9 100 CALM      30.11R
ARBOR VITAE    FLURRIES  17  14  89 N3        30.10R
WOODRUFF       FLURRIES  17  14  89 N3        30.10R
RHINELANDER    FAIR       9   7  92 CALM      30.10R
EAGLE RIVER    FLURRIES  13   9  82 N6        30.08R WCI   4
LAND O LAKES   FAIR      11   8  87 CALM      30.10R
PHILLIPS       FAIR       5   4  96 CALM      30.11S
TOMAHAWK       CLOUDY    18  14  82 NW3       30.11S
MEDFORD        CLOUDY    19  14  82 N3        30.10S
MERRILL        CLOUDY    20  16  84 NW3       30.11S
$$

WIZ029-030-035-036-043>047-240500-
CENTRAL WISCONSIN

CITY           SKY/WX    TMP DP  RH WIND       PRES   REMARKS
WAUSAU         CLOUDY    18  15  88 CALM      30.10S
MOSINEE        CLEAR     16  14  93 NW3       30.12S
MARSHFIELD     CLOUDY    20  16  84 N6        30.11S WCI  12
STEVENS POINT  FAIR      19  17  90 N6        30.13R WCI  11
WAUPACA        CLOUDY    26  19  73 NW7       30.14R WCI  18
WAUTOMA        CLOUDY    22  19  89 W6        30.15R WCI  14
WISC RAPIDS    MOCLDY    22  15  75 N7        30.15R WCI  13
CAMP DOUGLAS   NOT AVBL
$$

WIZ011>013-019>022-031-037>040-048>050-240500-
NORTHEAST WISCONSIN

CITY           SKY/WX    TMP DP  RH WIND       PRES   REMARKS
ANTIGO         FAIR      14  11  87 NW6       30.09R WCI   5
SHAWANO        FAIR      19  15  83 NW5       30.13R WCI  13
OCONTO         FAIR      19  14  79 N5        30.13R WCI  13
STURGEON BAY   CLOUDY    19  14  81 NW12      30.13R WCI   7
GREEN BAY      FAIR      22  16  78 NW8       30.13R WCI  12
MANITOWOC      FAIR      24  20  84 NW9       30.12R WCI  14
APPLETON       CLOUDY    23  16  74 N8        30.11R WCI  14
CLINTONVILLE   FAIR      21  16  79 NW3       30.13R
OSHKOSH        CLOUDY    24  18  77 N8        30.13R WCI  15
$$

WIZ032>034-041-042-053>061-240500-
SOUTHWEST WISCONSIN

CITY           SKY/WX    TMP DP  RH WIND       PRES   REMARKS
LA CROSSE      FAIR      22  16  78 NE3       30.18S
SPARTA         CLOUDY    21  19  90 NW3       30.18S
VIROQUA        CLOUDY    21  20  98 N6        30.13S WCI  13
BOSCOBEL       CLOUDY    26  19  74 N8        30.17F WCI  18
PRAIRIE DU CHI CLOUDY    24  18  75 NW5       30.18S WCI  19
PLATTEVILLE    CLOUDY    25  24  95 NW7       30.15S WCI  17
$$

WIZ056-057-062-063-064-067-068-240500-
SOUTH CENTRAL WISCONSIN

CITY           SKY/WX    TMP DP  RH WIND       PRES   REMARKS
REEDSBURG      CLOUDY    24  20  85 NW6       30.15R WCI  16
BARABOO/DELLS  CLOUDY    24  20  85 NW5       30.14R WCI  18
LONE ROCK      NOT AVBL
MINERAL POINT  CLOUDY    27  27 100 NW6       30.14R WCI  20
MADISON        CLOUDY    25  19  78 NW5       30.15R WCI  19
MIDDLETON      CLOUDY    26  23  87 NW10      30.15R WCI  16
WATERTOWN      CLOUDY    26  23  88 W6        30.12R WCI  19
MONROE         CLOUDY    27  23  86 NW5       30.13R WCI  21
JANESVILLE     CLOUDY    28  28 100 NW7       30.14R WCI  21
$$

WIZ051-052-058>065-066-070>072-240500-
SOUTHEAST WISCONSIN

CITY           SKY/WX    TMP DP  RH WIND       PRES   REMARKS
MILWAUKEE      CLOUDY    29  23  78 W7        30.13R WCI  22
WAUKESHA       CLOUDY    25  21  86 NW7       30.13R WCI  17
MILWAUKEE/TIMM CLOUDY    28  21  74 W6        30.12R WCI  22
RACINE         CLOUDY    27  24  89 W7        30.14R WCI  19
BURLINGTON     CLOUDY    26  21  83 W5        30.13R WCI  20
KENOSHA        CLOUDY    27  22  81 W7        30.13R WCI  19
FOND DU LAC    CLOUDY    27  18  69 N9        30.13R WCI  18
SHEBOYGAN      FAIR      25  20  81 NW7       30.11R WCI  17
WEST BEND      CLOUDY    28  23  80 W6        30.10R WCI  22
JUNEAU         CLOUDY    25  20  81 NW3       30.13R
$$

LSZ147-162-240500-
LAKE SUPERIOR

STATION/POSITION TIME  TEMP    WIND        PRES    WAVE
                       AIR SEA DIR/SP/G            HT/PER
                 (UTC) (F)     (DEG/KT/KT) (MB)    (FT/S)
DEVILS ISLAND    0300   23     180/  4/  5 1023.0R
SAXON HARBOR     0340   19     200/  4/  5 1021.3S
$$

LMZ867-665-643>646-240500-
LAKE MICHIGAN

STATION/POSITION TIME  TEMP    WIND        PRES    WAVE
                       AIR SEA DIR/SP/G            HT/PER
                 (UTC) (F)     (DEG/KT/KT) (MB)    (FT/S)
NORTHPORT PIER   0340   18     300/  7/ 14 1019.3R
KEWAUNEE LAKESHO 0330   23     330/  6/ 10 1018.9R
SHEBOYGAN LAKESH 0300   27     320/  7/  9 1020.1R
PORT WASHINGTON  0340   29     300/  4/  6 1021.0R
MILWAUKEE LAKESH 0330   29     280/  6/  9   N/A
KENOSHA   LAKESH 0300   27     290/  5/  8 1020.0
$$

TC  - TEMPERATURE IN CELSIUS
VSB - VISIBILITY IN STATUTE MILES
WCI - WIND CHILL INDEX
HX  - HEAT INDEX





USA.gov is the U.S. government's official web portal to all federal, state and local government web resources and services.